Regional Weather Roundup
Issued by NWS

Home | Current Version | Previous Version | Text Only | Print | Product List | Glossary Off
Versions: 1 2 3 4 5 6 7 8 9 10 11 12 13 14 15 16 17 18 19 20 21 22 23 24 25 26 27 28 29 30 31 32 33 34 35 36 37 38 39 40 41 42 43 44 45 46 47 48 49 50

000
ASUS43 KBIS 211410
RWRND

NORTH DAKOTA REGIONAL WEATHER ROUNDUP
NATIONAL WEATHER SERVICE BISMARCK ND
900 AM CDT FRI JUL 21 2017

NOTE: "FAIR" INDICATES FEW OR NO CLOUDS BELOW 12,000 FEET WITH NO
SIGNIFICANT WEATHER AND/OR OBSTRUCTIONS TO VISIBILITY.


NDZ001>003-009>011-017-211500-
NORTHWEST NORTH DAKOTA

CITY           SKY/WX    TMP DP  RH WIND       PRES   REMARKS
WILLISTON      CLOUDY    70  58  65 VRB5      29.83S
MINOT          MOSUNNY   71  61  70 CALM      29.81S
MINOT AFB      PTSUNNY   65  62  89 NW17G24   29.82R
$$

NDZ018>021-031>035-040>046-211500-
SOUTHWEST NORTH DAKOTA

CITY           SKY/WX    TMP DP  RH WIND       PRES   REMARKS
BISMARCK       MOSUNNY   76  63  64 N3        29.83S
DICKINSON      MOSUNNY   72  64  76 W6        29.83R
GARRISON         N/A     75  65  70 S7        29.81S
HETTINGER ARPT PTSUNNY   71  64  78 SW7       29.86S
$$

NDZ004>008-012>016-024-026-027-054-211500-
NORTHEAST NORTH DAKOTA

CITY           SKY/WX    TMP DP  RH WIND       PRES   REMARKS
GRAND FORKS    PTSUNNY   77  70  79 SE10      29.80R
GRND FRKS AFB  CLOUDY    74  69  85 SE6       29.82R
DEVILS LAKE    MOSUNNY   73  67  81 SE9       29.83R
$$

NDZ022-023-025-028>030-036>039-047>053-211500-
SOUTHEAST NORTH DAKOTA

CITY           SKY/WX    TMP DP  RH WIND       PRES   REMARKS
FARGO          PTSUNNY   79  72  79 S10G22    29.79F
JAMESTOWN      PTSUNNY   73  68  84 S6        29.83R
$$





USA.gov is the U.S. government's official web portal to all federal, state and local government web resources and services.